Re: [心得] Auris 0-100 平地無風實測

看板 Car
時間
留言 則留言,14人參與討論
推噓 12推 0噓 15→
加入最愛文章備份
超越車訊多次測試後的最佳成績為: 0-100km/hr:10.28秒 0-400m:17.35秒@133.6km/hr 零百加速破十秒的性能車......這被8.5~9.2秒左右的馬三和Focus屌打吧! 七秒出頭的Elantra Sport更不用說了. http://www.twmotor.com.tw/buy/main_products.php?pid=1506&mt=1 (全新架構的2.0升引擎,可輸出171hp最大馬力,搭配上新款CVT變速箱,原廠強調本車在 低速域的動力表現。) 然而試車組實際體驗後,發現Auris在低速域的動力輸出偏溫,直到中速域後才有飽足的 動力感湧現,並延續到高轉速域,這點反倒與原廠所強調的特色有些落差;而試著切換到 Sport模式體驗,能感受到變速箱模擬換檔的反應更為迅速,但對低速域的動力輸出並未 有任何幫助。話雖如此,採用新架構的變速箱(一檔齒輪,後銜接CVT)在齒輪與鋼帶銜 接時,並沒有明顯間隔感,這點凸顯出其設計的確有效。 (低速偏溫的輸出,對於加速表現有著不少影響,但中段湧現的飽滿動力,也不會太過突 兀,這點可看出原廠調校的特性。) (Auris提供運動模式,可增加變速箱的反應,但在此模式下的加速成績卻不如一般模式, 讓人摸不著頭緒。) 當然,試車組也對Auris進行加速實測,0~100km/h花費10.28秒,0~400m則為17.35秒, 通過時速133.6km/h,這對於最大馬力171hp的Auris來說,表現並非理想;較為特別的是 ,試車組切至Sport搭配手排模式,測出來都落在10.8秒上下,但採用D檔與一般模式進行 測試,就繳出了10.28秒的成績。 不過對手Mazda 3與Auris同為2.0升NA引擎,最大馬力Mazda 3還少了6hp,不過在低轉的 加速力道明顯比Auris優異,且0~100km/h試車組實測大多為8.5秒上下(按:最新一期超越 車訊對馬三的零百加速測試成績為9.13秒),對比之下,Auris輸了。 ※ 引述《waterdesign (水●設計)》之銘言: : https://youtu.be/k-e1AAA8XSA
: 看起來是兩秒多起步 : 十秒多破百 : 所以大約花八秒 -- ※ 發信站: 批踢踢實業坊(ptt.cc), 來自: 114.32.247.63 ※ 文章網址: https://www.ptt.cc/bbs/car/M.1539315032.A.1C7.html
1Fwaterdesign (9留言): 國外的媒體測出來的數據跟這家差很多 10/12 11:32
3Fwaterdesign (9留言): 就看你覺得哪家比較有公信力了 10/12 11:33
5Fmmppeegg: 拉桿上上去可以再少1秒喔 10/12 11:33
6Fwaterdesign (9留言): 樓上的世界真令人難以理解 10/12 11:34
7Fwaterdesign (9留言): 照理說拉桿只會增加重量變慢而以 10/12 11:35
8FVVll: 國外都用one-foot rollout做測試 國內是移動就開始計算了 10/12 11:35
9Fwaterdesign (9留言): 對直線加速沒什麼幫助的 10/12 11:35
10Fwaterdesign (9留言): 有些差異合理 差這麼多就有些奇怪了 10/12 11:36
你說的這家沒公信力媒體是出刊二十多年的老牌雜誌,而且對馬三 Focus和運動抖的加速 測試成績和原廠數據差不多.
11Fpin1024: 好慢,有先拉轉在入檔? 10/12 11:36
※ 編輯: Friedman (114.32.247.63), 10/12/2018 11:44:59
12Fzer0319: 在快也要你敢踩 10/12 11:36
13Fwaterdesign (9留言): 我沒有拉轉再入檔喔!就單純D檔普通模式油門到底 10/12 11:39
14FAirCondition: 0-400km大概踩一輩子都踩不到吧 10/12 11:47
歹勢搞笑了 已修改 ※ 編輯: Friedman (114.32.247.63), 10/12/2018 11:50:18
15Fq0knuGc: 我怎麼記得國外測試是7.7秒左右? 10/12 11:58
16Frefgdata: 水哥最專業你不知喔 10/12 12:08
17Fjimmyyang207: 媒體大多試駕配18吋胎的頂規,原PO看儀表應該是16吋 10/12 12:09
18Fjimmyyang207: 胎版本,記得大鵬灣試駕時就有媒體說16吋胎加速性 10/12 12:09
19Fjimmyyang207: 較佳了。 10/12 12:09
20FjojoRush: 水哥被打臉 10/12 12:54
21Fz85917131: Mpeg真可愛 10/12 13:34
22Fi9100: 空間還能比馬三小 10/12 13:38
23Flovefriend: 國外那是 0-100KMH 還是0-60MPH呢? 10/12 20:57
24Flovefriend: mobile01.com/topicdetail.php?f=264&t=5557741&p=6 10/12 21:09
25Flovefriend: M01 有分享0-100KMH 6.8的車 0-60MPH 是落在6.42 10/12 21:12
26Flovefriend: 如果車越慢 0-100KMH 跟 0-60MPH的秒數差距會更大 10/12 21:13
27Fsnsd0506: 測零百看的是扭力而不是馬力吧?還是我誤會了什麼呢! 10/20 20:59
看更多 Friedman 的文章,或回到 car 看板

Re: [心得] Auris 0-100 平地無風實測  ⋅  有 0 則留言。

推薦文章

完整討論串

留言數 標題 作者 日期
103 [心得] Auris 0-100 平地無風實測 waterdesign 2018-10-12T06:49:35
27 >> Re: [心得] Auris 0-100 平地無風實測 Friedman 2018-10-12T11:30:29
1 Re: [心得] Auris 0-100 平地無風實測 VVll 2018-10-12T12:09:27
20 Re: [心得] Auris 0-100 平地無風實測 RV 2018-10-13T08:51:51
7 Re: [心得] Auris 0-100 平地無風實測 MunezSu 2018-10-13T11:45:53
28 Re: [心得] Auris 0-100 平地無風實測 asin404 2018-10-13T12:06:09
70 Re: [心得] Auris 0-100 平地無風實測 VVll 2018-10-20T18:05:17